Location: Newark
(25.4800°N, 85.7200°E)
Time: 20:10:55
(UTC+00:00)

Explorer 11/Cluster Stage 4 - Pass Details

Date: 23 August 2019
Orbit: 467 x 1260 km, 28.8° (Epoch: 23 September)

Event Time Altitude Azimuth Distance (km) Brightness Sun altitude
Rises 08:04:43 0° 282° (WNW) 4,190 10.6 61.6°
Reaches altitude 10° 08:07:45 10° 284° (WNW) 3,189 10.2 60.9°
Maximum altitude 08:15:51 78° 10° (N) 1,151 8.4 59.3°
Drops below altitude 10° 08:22:44 10° 97° (E) 2,739 9.2 57.8°
Sets 08:25:10 0° 98° (E) 3,573 9.7 57.3°
